Snowfall_Accumulation
0.0 0.0 0.0 0.0 0.0 0.0 0.0 0.0 0.0 nan nan nan nan nan nan nan nan nan nan nan nan nan nan nan nan nan nan
0.0 0.0 0.0 0.0 0.0 0.0 0.0 0.0 0.0 nan nan nan nan nan nan nan nan nan nan nan nan nan nan nan nan nan nan
0.0 0.0 0.0 0.0 0.0 0.0 0.0 0.0 0.0 nan nan nan nan nan nan nan nan nan nan nan nan nan nan nan nan nan nan
0.0 0.0 0.0 0.0 0.0 0.0 0.0 0.0 0.0 0.0 nan nan nan nan nan nan nan nan nan nan nan nan nan nan nan nan nan
0.1 0.0 0.0 0.0 0.0 0.0 0.0 0.0 0.0 0.0 0.0 0.0 0.0 0.0 0.0 nan nan nan nan nan nan nan nan nan nan nan nan
0.1 0.0 0.0 0.0 0.0 0.0 0.0 0.1 0.5 0.0 0.0 0.0 0.0 0.0 0.0 0.0 nan nan nan nan nan nan nan nan nan nan nan
0.0 0.0 0.0 0.0 0.0 0.0 0.1 0.5 0.4 0.0 0.0 0.1 0.0 0.0 0.0 0.0 nan nan nan nan nan nan nan nan nan nan nan
0.0 0.0 0.0 0.0 0.0 0.0 0.1 0.1 0.0 0.0 0.0 0.5 0.0 0.0 0.0 0.0 nan nan nan nan nan nan nan nan nan nan nan
nan nan nan nan nan 0.0 0.5 1.3 0.3 0.0 0.0 0.2 0.0 0.0 0.0 0.0 0.0 nan nan nan nan nan nan nan nan nan 0.0
0.0 0.0 nan nan nan 0.0 0.2 2.2 1.2 1.4 0.0 1.5 0.1 0.2 2.4 0.0 0.0 0.0 0.0 nan nan nan nan nan nan 0.0 0.0
0.0 0.0 0.0 0.0 0.0 0.0 0.0 0.6 3.1 2.1 0.0 1.1 1.9 0.9 2.4 1.6 0.0 0.0 0.0 0.0 0.0 0.0 nan nan nan 0.0 0.0
0.0 0.0 0.2 0.3 0.2 0.2 0.0 0.1 0.2 0.6 0.0 0.1 10.8 2.7 5.1 5.4 2.0 0.0 0.2 0.1 0.2 0.4 0.1 nan nan nan nan
0.2 0.5 0.5 0.3 0.2 0.4 0.1 0.1 0.1 0.1 0.0 0.1 2.5 1.0 3.1 5.9 4.5 1.5 1.1 0.6 0.5 0.7 0.7 0.7 0.5 0.3 0.3
0.4 0.0 0.0 1.5 1.4 0.8 2.1 1.3 3.6 1.7 0.2 0.2 0.4 0.9 8.1 2.5 3.2 4.1 0.9 5.8 0.6 0.7 1.0 0.7 0.6 0.7 0.8
0.9 1.1 0.9 1.5 1.7 1.2 2.3 3.4 7.4 4.4 4.0 2.3 1.1 0.6 1.4 3.4 8.7 1.9 1.5 1.6 0.9 1.5 1.7 1.2 0.7 0.6 0.9
2.5 2.8 3.9 5.1 4.6 4.8 4.8 5.6 7.5 4.6 5.4 4.7 5.5 10.2 6.0 4.3 2.2 2.7 1.9 2.0 1.4 1.1 1.1 3.3 1.3 0.5 0.2
5.1 6.3 7.1 7.6 6.3 7.0 6.0 5.8 7.1 5.5 5.9 6.9 13.8 14.4 18.3 12.0 2.0 nan 5.9 2.9 2.5 2.8 1.0 1.6 2.7 1.2 0.2
Water_Equivalent
0.00 0.00 0.00 0.00 0.00 0.00 0.00 0.00 0.00 nan nan nan nan nan nan nan nan nan nan nan nan nan nan nan nan nan nan
0.00 0.00 0.00 0.00 0.00 0.00 0.00 0.00 0.00 nan nan nan nan nan nan nan nan nan nan nan nan nan nan nan nan nan nan
0.00 0.00 0.00 0.00 0.00 0.00 0.00 0.00 0.00 nan nan nan nan nan nan nan nan nan nan nan nan nan nan nan nan nan nan
0.00 0.01 0.00 0.00 0.00 0.00 0.00 0.00 0.00 0.00 nan nan nan nan nan nan nan nan nan nan nan nan nan nan nan nan nan
0.03 0.01 0.00 0.00 0.00 0.00 0.00 0.00 0.00 0.00 0.00 0.00 0.00 0.00 0.00 nan nan nan nan nan nan nan nan nan nan nan nan
0.03 0.00 0.00 0.00 0.00 0.00 0.00 0.05 0.13 0.00 0.00 0.00 0.00 0.00 0.00 0.00 nan nan nan nan nan nan nan nan nan nan nan
0.00 0.00 0.00 0.00 0.00 0.01 0.01 0.11 0.07 0.00 0.00 0.01 0.00 0.00 0.00 0.00 nan nan nan nan nan nan nan nan nan nan nan
0.00 0.00 0.00 0.00 0.00 0.01 0.02 0.03 0.00 0.00 0.00 0.15 0.00 0.00 0.00 0.00 nan nan nan nan nan nan nan nan nan nan nan
nan nan nan nan nan 0.00 0.14 0.29 0.07 0.00 0.00 0.02 0.00 0.00 0.00 0.00 0.00 nan nan nan nan nan nan nan nan nan 0.00
0.00 0.00 nan nan nan 0.00 0.09 0.50 0.30 0.32 0.00 0.33 0.02 0.05 0.46 0.00 0.00 0.00 0.00 nan nan nan nan nan nan 0.00 0.00
0.00 0.00 0.00 0.00 0.00 0.01 0.00 0.18 0.68 0.50 0.00 0.26 0.51 0.24 0.51 0.35 0.00 0.00 0.00 0.00 0.00 0.00 nan nan nan 0.00 0.01
0.00 0.00 0.07 0.12 0.09 0.09 0.01 0.04 0.06 0.13 0.02 0.02 2.34 0.57 1.03 0.94 0.38 0.00 0.03 0.03 0.07 0.11 0.04 nan nan nan nan
0.04 0.13 0.15 0.11 0.06 0.11 0.03 0.02 0.03 0.02 0.00 0.03 0.65 0.23 0.70 1.07 0.75 0.31 0.24 0.14 0.12 0.20 0.18 0.20 0.15 0.10 0.13
0.10 0.01 0.01 0.39 0.35 0.23 0.50 0.34 0.79 0.47 0.07 0.08 0.10 0.20 1.56 0.56 0.67 0.73 0.22 1.09 0.17 0.18 0.24 0.19 0.14 0.17 0.21
0.21 0.21 0.18 0.33 0.38 0.30 0.53 0.75 1.28 0.86 0.76 0.59 0.28 0.15 0.36 0.67 1.47 0.39 0.30 0.33 0.25 0.37 0.40 0.32 0.17 0.15 0.21
0.52 0.58 0.75 0.97 0.85 0.98 0.99 1.01 1.27 0.84 0.96 0.93 1.08 1.66 1.28 1.04 0.50 0.59 0.45 0.49 0.36 0.28 0.28 0.75 0.37 0.14 0.04
1.09 1.32 1.46 1.49 1.24 1.22 1.04 1.05 1.25 0.97 1.06 1.30 2.03 2.32 2.39 1.52 0.44 nan 1.25 0.75 0.66 0.59 0.27 0.40 0.69 0.38 0.06
SL_Ratio
nan nan nan nan nan nan nan nan nan nan nan nan nan nan nan nan nan nan nan nan nan nan nan nan nan nan nan
nan 4.0 nan nan nan nan nan nan nan nan nan nan nan nan nan nan nan nan nan nan nan nan nan nan nan nan nan
2.5 nan nan nan 1.7 2.5 nan nan nan nan nan nan nan nan nan nan nan nan nan nan nan nan nan nan nan nan nan
3.3 2.5 5.0 nan nan nan nan nan nan nan nan nan nan nan nan nan nan nan nan nan nan nan nan nan nan nan nan
2.5 2.4 5.0 nan nan nan nan nan nan nan nan nan nan nan nan nan nan nan nan nan nan nan nan nan nan nan nan
2.6 nan nan nan nan nan 3.3 2.7 3.9 nan 0.0 nan nan nan nan nan nan nan nan nan nan nan nan nan nan nan nan
nan nan nan nan nan 6.1 5.7 4.4 5.6 nan 6.7 5.0 nan nan nan nan nan nan nan nan nan nan nan nan nan nan nan
nan nan nan nan nan 4.7 4.7 4.8 nan nan 10.0 3.7 nan nan nan nan nan nan nan nan nan nan nan nan nan nan nan
nan nan nan nan nan nan 3.5 4.4 4.5 nan nan 6.6 nan nan nan nan nan nan nan nan nan nan nan nan nan nan nan
nan nan nan nan nan nan 2.8 4.5 4.1 4.4 2.5 4.7 6.0 4.7 5.3 nan nan nan nan nan nan nan nan nan nan nan nan
nan nan nan 10.0 nan 2.6 5.0 3.1 4.6 4.3 10.0 4.2 3.8 3.8 4.7 4.5 0.0 nan nan nan nan nan nan nan nan nan 2.9
4.3 6.7 3.1 3.0 2.6 2.7 3.6 2.7 2.5 4.6 2.5 3.8 4.6 4.8 4.9 5.7 5.3 5.0 5.0 4.3 3.5 3.7 2.5 nan nan nan nan
4.7 3.4 3.1 2.8 3.1 3.3 3.2 3.1 3.0 2.8 5.0 3.4 3.8 4.3 4.4 5.6 6.0 4.6 4.5 4.4 3.8 3.7 3.9 3.7 3.6 2.7 2.6
4.2 4.2 4.7 3.7 4.1 3.6 4.2 4.0 4.6 3.7 3.4 3.3 3.6 4.4 5.2 4.5 4.7 5.6 3.9 5.4 3.7 4.0 4.1 3.9 4.1 4.3 3.6
4.6 4.9 5.0 4.5 4.5 3.9 4.3 4.5 5.8 5.2 5.2 3.9 4.0 4.2 3.9 5.1 5.9 4.8 4.9 4.8 3.8 3.9 4.1 3.7 3.9 4.0 4.5
4.8 4.8 5.2 5.3 5.4 4.9 4.9 5.6 5.9 5.5 5.7 5.0 5.1 6.1 4.7 4.2 4.4 4.6 4.2 4.1 3.9 3.8 3.8 4.3 3.7 3.7 5.4
4.7 4.7 4.9 5.1 5.0 5.8 5.7 5.6 5.7 5.7 5.5 5.3 6.8 6.2 7.7 7.9 4.5 nan 4.7 3.9 3.9 4.7 3.7 4.0 3.9 3.2 3.3